Regional Weather Roundup
Issued by NWS

Home | Current Version | Previous Version | Graphics & Text | Print | Product List | Glossary Off
Versions: 1 2 3 4 5 6 7 8 9 10 11 12 13 14 15 16 17 18 19 20 21 22 23 24 25 26 27 28 29 30 31 32 33 34 35 36 37 38 39 40 41 42 43 44 45 46 47 48 49 50

000
ASUS43 KTOP 300208
RWRKS

WEATHER ROUNDUP FOR KANSAS
NATIONAL WEATHER SERVICE GOODLAND KS
900 PM CDT MON MAY 29 2017

NOTE:  "FAIR" INDICATES FEW OR NO CLOUDS BELOW 12,000 FEET WITH NO
SIGNIFICANT WEATHER AND/OR OBSTRUCTIONS TO VISIBILITY.

KSZ001>006-013>018-027>032-041>047-300300-
NORTHWEST KANSAS

CITY           SKY/WX    TMP DP  RH WIND       PRES   REMARKS
GOODLAND       CLOUDY    60  49  66 W25G33    30.16R
HAYS           CLEAR     70  50  49 CALM      30.06R
HILL CITY      CLEAR     68  51  54 CALM      30.06S
RUSSELL        CLEAR     71  45  39 NE3       30.04R
$$

KSZ061>065-074>080-084>089-300300-
SOUTHWEST KANSAS

CITY           SKY/WX    TMP DP  RH WIND       PRES   REMARKS
DODGE CITY     PTCLDY    70  46  42 NE7       30.09R
ELKHART          N/A     59  45  60 MISG        N/A
GARDEN CITY    CLOUDY    69  42  37 E8        30.09R
GREAT BEND     CLEAR     67  52  58 CALM      30.06R
LIBERAL        CLOUDY    71  49  45 E8        30.09R
PRATT          MOCLDY    70  45  40 NE6       30.06R
$$

KSZ066>073-081>083-090>101-300300-
SOUTHEAST KANSAS

CITY           SKY/WX    TMP DP  RH WIND       PRES   REMARKS
CHANUTE        CLEAR     74  49  41 N5        29.99R
COFFEYVILLE    CLEAR     74  56  53 NE5       29.97S
HUTCHINSON     CLEAR     68  51  54 CALM      30.03R
MEDICINE LODGE   N/A     73  49  42 NE9       30.03R
NEWTON         CLEAR     68  51  54 N6        30.04R
PARSONS        CLEAR     67  57  70 CALM      29.99R
WICHITA INTL   PTCLDY    76  50  40 N9        30.01R
WICHITA JABRA  CLEAR     68  52  56 N6        30.02R
WICHITA MCCONL CLEAR     75  48  38 N9        30.02R
WINFIELD       CLEAR     72  51  47 N6        30.01R
$$

KSZ007>012-019>026-033>040-048>060-102>105-300300-
NORTHEAST KANSAS

CITY           SKY/WX    TMP DP  RH WIND       PRES   REMARKS
CONCORDIA      CLEAR     67  44  43 N7        30.03R
EMPORIA        CLEAR     71  53  52 NW3       30.00R
LAWRENCE       CLEAR     67  55  65 CALM      29.98S
MANHATTAN      CLEAR     68  52  56 CALM      30.00R
MARYSVILLE     CLEAR     64  41  42 N6        30.02R
OLATHE IND     CLEAR     70  50  49 NW5       29.99S
OLATHE EXE     CLEAR     72  49  44 CALM      29.99R
SALINA         CLEAR     75  52  44 CALM      30.02R
TOPEKA BILLARD CLEAR     72  53  51 CALM      29.98S
TOPEKA FORBES  CLEAR     71  52  50 CALM      29.99S
$$




USA.gov is the U.S. government's official web portal to all federal, state and local government web resources and services.